This is the latest recevied weather packets stored in our database for station/object K5IDL. If no packets are shown the sender has not sent any weather packets the latest 10 day(s).
| Time | Temp. | Humidity | Pressure | Rain* | Wind** | Luminosity | Snow |
|---|---|---|---|---|---|---|---|
| 1777835851 | 28.33° C | 33% | 1019.7 hPa | 0 mm | - | 718 W/m² | - |
| 1777835548 | 28.89° C | 33% | 1019.7 hPa | 0 mm | - | 719 W/m² | - |
| 1777835245 | 29.44° C | 33% | 1019.9 hPa | 0 mm | - | 724 W/m² | - |
| 1777834941 | 28.33° C | 35% | 1019.7 hPa | 0 mm | - | 650 W/m² | - |
| 1777834639 | 27.78° C | 34% | 1019.9 hPa | 0 mm | - | 701 W/m² | - |
| 1777834334 | 28.33° C | 34% | 1019.9 hPa | 0 mm | - | 340 W/m² | - |
| 1777834029 | 28.33° C | 33% | 1020.2 hPa | 0 mm | - | 728 W/m² | - |
| 1777833726 | 28.33° C | 33% | 1020.3 hPa | 0 mm | - | 745 W/m² | - |
| 1777833422 | 28.33° C | 35% | 1020.3 hPa | 0 mm | - | 741 W/m² | - |
| 1777833120 | 28.89° C | 33% | 1020.2 hPa | 0 mm | - | 743 W/m² | - |
| 1777832817 | 28.89° C | 34% | 1020.4 hPa | 0 mm | - | 744 W/m² | - |
| 1777832515 | 27.78° C | 35% | 1020.5 hPa | 0 mm | - | 746 W/m² | - |
| 1777832212 | 28.33° C | 34% | 1020.6 hPa | 0 mm | - | 743 W/m² | - |
| 1777831909 | 28.33° C | 36% | 1020.7 hPa | 0 mm | - | 745 W/m² | - |
| 1777831606 | 28.33° C | 37% | 1021 hPa | 0 mm | - | 742 W/m² | - |
| 1777831304 | 28.33° C | 36% | 1020.8 hPa | 0 mm | - | 740 W/m² | - |
| 1777831000 | 28.33° C | 36% | 1020.9 hPa | 0 mm | - | 740 W/m² | - |
| 1777830698 | 28.89° C | 35% | 1020.9 hPa | 0 mm | - | 737 W/m² | - |
| 1777830394 | 27.78° C | 37% | 1021.2 hPa | 0 mm | - | 737 W/m² | - |
| 1777830091 | 27.78° C | 37% | 1020.9 hPa | 0 mm | - | 728 W/m² | - |
| 1777829781 | 27.78° C | 38% | 1021.4 hPa | 0 mm | - | 727 W/m² | - |
| 1777829478 | 27.22° C | 39% | 1021.5 hPa | 0 mm | - | 725 W/m² | - |
| 1777829175 | 27.78° C | 39% | 1021.3 hPa | 0 mm | - | 718 W/m² | - |
| 1777828872 | 27.78° C | 39% | 1021.3 hPa | 0 mm | - | 713 W/m² | - |
| 1777828569 | 27.78° C | 39% | 1021.6 hPa | 0 mm | - | 709 W/m² | - |
* Rain latest hour (hover to see other rain measurements)
** Current wind speed in m/s (hover to see current wind gust speed)